Volver al catálogo

STARLINK-37379

ActivoComunicacionesVLEO
NORAD 69522·PAYLOAD·🇺🇸 United States

Lanzado Jun 12, 2026 desde Cape Canaveral Space Force Station

Loading…

Próximos Pases (próximas 24 horas)

TLE

ActualizadoSource: CelesTrak SupGP

Época: Sep 15, 2026, 04:00 UTC

1 69522C 26133Q   26258.16715278 -.00049222  00000+0 -14541-2 0  2584
2 69522  53.1565 254.5169 0001265  90.7257  34.0085 15.34418530    12

Sigue STARLINK-37379 en tiempo real con AllMySat

Download on the App Store